Location: Rio Negrinho
(26.2394°S, 49.4999°W)
Time: 07:17:29
(UTC+00:00)

H-2A R/B - Pass Details

Date: 29 September 2020
Orbit: 500 x 542 km, 97.3° (Epoch: 17 June)

Event Time Altitude Azimuth Distance (km) Brightness Sun altitude
Rises 07:34:37 0° 46° (NE) 2,616 6.7 -19.6°
Reaches altitude 10° 07:37:15 10° 66° (ENE) 1,747 6.1 -19.0°
Maximum altitude 07:39:43 17° 108° (ESE) 1,378 5.9 -18.5°
Drops below altitude 10° 07:42:14 10° 149° (SSE) 1,779 6.0 -17.9°
Sets 07:44:57 0° 169° (S) 2,687 6.6 -17.3°
